Probability
42 45 55 58 39 35 39 35 35 35 32 29 29 29 35 32 26 26 32 39 35 39 39 39 42 42 42 45 35 39 45 45 32 26 29 29 26 29 29 26 23 23 23
42 35 45 48 45 39 42 35 35 35 39 32 26 26 29 29 32 26 35 32 29 35 35 39 32 35 39 45 48 39 45 42 32 29 29 26 23 26 23 23 23 23 23
55 39 42 52 48 42 45 39 39 39 35 32 26 23 23 29 29 32 29 29 29 29 32 32 32 32 39 39 45 45 45 42 35 32 23 16 19 13 19 13 13 10 23
55 58 42 45 48 48 45 39 39 39 35 35 32 26 23 39 35 29 26 26 32 26 29 32 26 32 29 32 42 39 42 39 35 29 29 19 16 16 13 6 6 10 10
52 55 45 45 45 32 29 26 35 39 35 35 29 26 19 26 35 23 26 19 32 35 32 26 29 32 29 26 26 32 35 35 35 32 29 26 19 13 10 10 6 6 10
48 45 48 55 32 29 29 39 42 42 39 35 13 16 23 23 23 26 26 29 26 29 23 26 29 29 29 29 26 26 32 35 29 29 29 26 23 13 10 10 6 6 10
52 55 35 45 39 35 35 32 32 32 29 29 23 26 23 13 19 26 23 23 23 23 26 19 23 26 23 16 13 23 23 19 19 23 19 23 19 19 13 10 10 6 10
52 39 45 42 39 45 42 39 42 29 26 26 23 19 16 19 19 10 23 23 19 16 19 16 23 26 26 19 10 10 16 16 13 19 26 23 19 19 13 16 10 10 6
39 39 45 45 45 39 45 42 42 39 26 23 23 19 10 13 10 16 16 13 16 19 19 19 16 19 19 19 19 13 10 13 10 13 23 16 13 13 13 10 10 13 6
42 35 42 42 42 39 45 42 39 39 32 26 26 26 13 16 13 6 6 10 19 16 19 13 19 16 19 23 19 10 6 3 6 6 10 10 6 10 6 6 6 10 13
39 32 35 45 45 45 42 39 42 35 29 29 35 23 23 26 10 13 13 16 13 13 16 19 19 16 13 19 26 13 3 3 0 3 3 6 6 3 0 3 6 10 10
39 29 29 42 42 35 45 42 39 35 35 39 32 29 23 26 19 13 19 26 19 10 16 13 13 13 10 10 13 3 3 0 0 0 0 3 3 0 0 3 3 6 10
32 39 26 39 32 42 42 42 42 32 35 39 35 29 26 19 23 16 23 19 23 19 19 10 6 6 6 10 16 3 0 0 0 0 0 0 0 0 0 0 6 6 6
26 39 32 29 29 32 26 35 26 26 35 39 26 32 29 19 19 16 19 23 13 13 10 10 3 10 10 10 10 3 10 0 0 0 0 0 0 0 0 0 0 0 6
26 32 29 29 26 26 29 35 29 32 32 29 23 26 26 16 16 19 23 23 19 13 13 10 10 6 10 13 10 10 13 3 0 0 0 0 0 0 0 0 0 0 0
39 32 32 32 32 29 29 35 26 29 35 35 35 32 29 23 23 19 16 10 10 16 10 10 10 6 16 3 6 10 6 3 0 0 0 0 0 0 0 0 0 0 0
42 39 39 35 35 32 32 39 23 35 29 29 29 26 35 35 26 10 13 16 16 13 13 10 6 6 13 13 6 10 6 10 6 0 0 0 0 0 0 0 0 0 0
39 35 39 35 32 32 42 32 32 32 32 29 23 23 26 23 26 23 23 13 16 19 13 16 13 10 19 19 19 29 3 0 3 0 0 0 0 0 0 0 0 0 0
42 32 32 32 32 35 35 39 35 32 29 26 26 26 29 23 35 26 26 23 16 6 19 16 16 13 13 13 23 16 6 19 3 0 0 0 0 0 0 0 0 0 0
42 42 35 32 35 35 35 35 35 32 35 26 26 29 26 26 35 35 29 32 19 26 23 23 19 13 13 13 26 23 16 19 10 0 0 0 0 0 0 0 0 0 0
39 42 35 32 32 35 32 32 32 29 35 32 29 26 26 23 26 29 6 26 26 26 26 19 16 10 10 16 16 19 16 13 6 3 10 10 6 6 3 0 0 0 0
42 39 32 26 26 26 16 13 16 26 29 32 29 32 26 16 6 3 3 3 3 23 26 26 19 13 19 10 16 13 16 10 6 6 10 3 3 3 6 3 0 0 0
39 32 29 29 26 23 10 6 3 19 26 32 29 29 26 13 13 19 6 0 0 0 3 23 19 19 16 19 19 13 13 10 10 3 6 6 6 6 6 0 0 0 0
32 32 32 29 32 16 6 6 6 13 23 23 26 29 29 29 19 26 26 23 23 23 6 10 19 26 16 23 23 16 10 10 6 13 6 6 6 6 3 3 0 0 0
32 32 32 35 29 16 6 3 0 16 23 23 23 26 26 29 16 6 16 29 32 29 0 0 0 0 0 3 3 6 3 0 0 0 6 6 6 6 3 3 0 0 0
32 29 32 32 29 26 6 3 0 13 23 26 29 26 13 13 10 3 29 29 32 26 23 13 0 0 0 0 0 0 0 3 3 0 3 6 6 3 3 0 0 0 0
Height
5881 5881 5880 5880 5879 5879 5879 5878 5878 5877 5877 5877 5876 5876 5875 5875 5874 5874 5873 5873 5873 5873 5873 5872 5872 5872 5872 5872 5872 5873 5873 5873 5873 5874 5874 5874 5874 5875 5875 5875 5875 5875 5875
5881 5880 5880 5880 5879 5878 5878 5878 5877 5877 5876 5875 5875 5874 5874 5873 5872 5872 5871 5871 5871 5870 5870 5870 5870 5869 5869 5869 5869 5870 5870 5870 5870 5871 5871 5871 5872 5872 5872 5872 5872 5872 5872
5880 5880 5879 5879 5878 5878 5877 5877 5876 5876 5875 5874 5873 5872 5872 5871 5870 5870 5869 5869 5868 5868 5868 5867 5867 5867 5867 5867 5866 5867 5867 5868 5868 5868 5868 5868 5869 5869 5869 5869 5869 5869 5869
5879 5879 5878 5877 5877 5876 5876 5876 5875 5875 5874 5873 5872 5871 5870 5869 5869 5868 5867 5866 5866 5865 5865 5865 5864 5864 5863 5863 5863 5864 5864 5865 5865 5865 5865 5865 5866 5866 5866 5866 5866 5866 5866
5878 5877 5877 5876 5876 5875 5875 5874 5873 5873 5872 5871 5870 5869 5868 5867 5866 5866 5865 5864 5863 5863 5862 5862 5861 5861 5860 5860 5860 5860 5861 5862 5862 5862 5862 5863 5863 5863 5863 5863 5863 5863 5863
5877 5876 5875 5875 5874 5874 5873 5872 5872 5871 5870 5869 5868 5867 5866 5865 5864 5864 5863 5862 5861 5860 5860 5859 5858 5858 5857 5857 5857 5857 5858 5859 5859 5859 5860 5860 5860 5860 5860 5860 5860 5860 5859
5875 5874 5874 5873 5872 5872 5871 5870 5870 5869 5868 5867 5866 5865 5864 5863 5862 5861 5860 5859 5859 5858 5857 5857 5856 5855 5855 5854 5854 5854 5855 5855 5856 5856 5856 5857 5856 5856 5856 5856 5856 5856 5856
5873 5872 5872 5871 5870 5870 5869 5869 5868 5867 5866 5865 5864 5863 5862 5861 5860 5859 5858 5857 5856 5855 5855 5854 5853 5853 5852 5851 5851 5851 5851 5852 5852 5853 5853 5853 5852 5852 5852 5852 5852 5852 5852
5870 5870 5869 5868 5868 5867 5867 5866 5865 5864 5863 5862 5861 5860 5859 5858 5858 5857 5856 5855 5854 5853 5852 5852 5851 5850 5850 5849 5848 5848 5849 5849 5849 5849 5849 5849 5849 5849 5849 5848 5848 5848 5848
5867 5867 5866 5865 5865 5864 5864 5863 5862 5861 5861 5860 5859 5857 5857 5856 5855 5854 5853 5852 5851 5850 5850 5849 5849 5848 5847 5846 5846 5846 5846 5846 5845 5845 5845 5845 5844 5844 5844 5844 5844 5844 5844
5864 5863 5863 5862 5862 5861 5861 5860 5859 5858 5857 5857 5855 5854 5853 5852 5852 5851 5850 5849 5848 5847 5847 5846 5846 5845 5845 5843 5843 5843 5842 5842 5841 5841 5841 5840 5840 5840 5840 5840 5840 5839 5839
5860 5859 5859 5858 5858 5858 5857 5857 5856 5855 5854 5853 5852 5851 5850 5849 5848 5847 5846 5845 5844 5844 5843 5842 5842 5841 5841 5840 5840 5839 5838 5837 5837 5837 5836 5836 5836 5835 5835 5835 5834 5834 5833
5855 5855 5855 5854 5854 5854 5853 5853 5852 5852 5851 5850 5849 5848 5847 5846 5845 5844 5843 5842 5841 5840 5839 5838 5837 5837 5836 5836 5836 5835 5834 5833 5833 5832 5832 5831 5831 5830 5830 5830 5829 5829 5829
5850 5850 5850 5850 5850 5849 5849 5849 5848 5848 5847 5846 5845 5844 5843 5842 5841 5840 5839 5838 5837 5836 5835 5834 5833 5832 5832 5831 5831 5830 5829 5828 5828 5827 5827 5826 5826 5825 5825 5824 5823 5823 5823
5845 5845 5845 5845 5845 5845 5844 5844 5844 5843 5842 5842 5841 5840 5839 5838 5837 5836 5835 5834 5833 5832 5831 5829 5828 5827 5827 5826 5826 5825 5824 5823 5823 5822 5822 5821 5821 5820 5819 5818 5817 5817 5817
5839 5839 5840 5840 5839 5839 5839 5839 5838 5838 5837 5837 5836 5835 5834 5833 5833 5832 5830 5829 5828 5827 5826 5824 5823 5822 5821 5821 5820 5819 5818 5818 5817 5817 5816 5816 5815 5814 5814 5813 5812 5811 5811
5833 5833 5833 5833 5833 5833 5833 5833 5833 5832 5832 5831 5831 5830 5829 5828 5828 5826 5825 5824 5823 5822 5820 5819 5818 5817 5816 5815 5814 5813 5813 5812 5812 5811 5811 5810 5809 5808 5808 5807 5806 5805 5805
5826 5826 5827 5827 5826 5826 5827 5827 5827 5827 5826 5825 5825 5825 5824 5823 5822 5821 5820 5819 5818 5816 5815 5813 5812 5811 5810 5809 5809 5808 5807 5806 5805 5805 5804 5804 5803 5802 5802 5801 5801 5800 5799
5819 5819 5820 5820 5820 5820 5820 5820 5820 5820 5820 5819 5819 5818 5818 5817 5816 5816 5815 5813 5812 5810 5809 5807 5806 5805 5804 5803 5802 5802 5801 5799 5799 5798 5798 5797 5797 5796 5796 5795 5795 5794 5794
5812 5813 5813 5813 5813 5813 5813 5814 5814 5814 5813 5813 5813 5812 5811 5811 5810 5810 5809 5807 5806 5804 5803 5801 5800 5799 5798 5797 5796 5795 5794 5793 5792 5792 5791 5791 5790 5790 5789 5789 5789 5788 5788
5805 5806 5806 5806 5806 5806 5807 5807 5807 5807 5807 5807 5807 5806 5805 5805 5804 5804 5803 5801 5800 5798 5797 5795 5794 5793 5792 5791 5790 5788 5788 5787 5786 5785 5785 5785 5784 5783 5783 5782 5782 5782 5781
5798 5799 5799 5799 5800 5800 5800 5801 5801 5801 5801 5801 5800 5800 5799 5799 5798 5797 5796 5795 5794 5792 5791 5789 5788 5787 5786 5784 5783 5782 5781 5781 5780 5780 5779 5778 5777 5777 5776 5776 5775 5775 5774
5791 5791 5792 5792 5793 5794 5794 5794 5794 5794 5794 5794 5794 5793 5793 5792 5792 5791 5790 5789 5787 5786 5785 5783 5782 5780 5779 5778 5777 5776 5775 5774 5774 5773 5772 5772 5771 5770 5770 5769 5768 5768 5768
5783 5784 5784 5785 5786 5787 5787 5787 5788 5788 5788 5788 5787 5787 5786 5786 5785 5784 5783 5782 5781 5779 5778 5777 5775 5774 5772 5771 5770 5770 5769 5768 5767 5766 5765 5765 5764 5764 5763 5762 5762 5761 5760
5775 5776 5777 5778 5779 5780 5780 5780 5780 5780 5781 5781 5780 5780 5779 5779 5778 5777 5776 5775 5773 5772 5771 5770 5768 5767 5766 5764 5763 5762 5761 5760 5760 5759 5758 5757 5757 5756 5756 5755 5754 5753 5753
5767 5768 5769 5770 5771 5772 5773 5773 5773 5773 5773 5774 5774 5773 5772 5772 5771 5770 5769 5768 5766 5765 5764 5763 5761 5760 5759 5757 5756 5755 5754 5753 5752 5752 5751 5750 5749 5748 5748 5748 5746 5745 5745
Wind_Speed
1 1 1 2 1 2 2 3 4 4 4 4 5 5 6 7 7 8 9 9 9 10 10 10 11 11 11 11 12 13 12 13 13 12 12 12 11 11 11 11 12 12 12
2 2 2 3 3 3 3 4 4 4 4 5 6 6 7 8 8 9 10 10 10 10 10 10 10 10 11 12 13 13 14 13 13 13 12 12 12 12 11 12 12 13 13
2 3 3 4 4 5 4 4 4 5 5 6 6 7 7 8 9 9 10 10 10 10 11 11 11 11 12 12 12 13 13 13 13 12 12 12 12 12 12 12 13 14 13
3 3 4 5 5 5 5 5 5 6 6 6 7 8 8 8 9 9 10 10 10 10 11 11 11 12 12 12 13 13 13 13 13 12 12 12 12 13 13 13 13 13 14
4 4 5 6 6 6 7 7 6 7 7 8 8 8 8 9 9 9 10 9 10 10 11 11 11 11 12 13 13 13 13 13 13 13 13 13 13 13 13 13 14 14 15
6 5 5 5 6 7 8 8 8 8 8 8 8 8 8 8 9 9 10 10 10 11 11 12 12 12 12 13 13 13 13 14 14 14 14 14 14 14 14 15 15 15 16
7 7 6 6 6 6 7 7 8 8 9 9 10 10 10 9 9 9 10 10 10 10 10 11 11 11 11 12 12 12 13 14 15 15 16 16 16 16 16 16 16 16 16
9 9 8 8 7 7 8 8 9 9 9 10 10 11 11 10 10 10 11 10 9 10 10 10 10 11 11 11 11 11 13 14 14 15 16 16 16 16 17 17 17 17 17
10 10 10 10 9 9 9 10 10 10 10 11 11 11 11 11 10 11 12 11 10 10 10 10 11 12 12 12 11 11 12 13 15 16 16 16 17 17 17 18 17 17 17
12 12 12 12 11 10 10 11 11 11 11 11 11 11 11 11 11 11 12 12 11 11 12 12 12 13 13 13 13 13 13 14 15 16 17 17 18 18 18 18 18 18 18
14 14 14 14 13 12 12 11 11 10 10 11 11 11 11 12 12 12 12 12 12 13 14 14 14 14 14 14 14 14 15 16 17 17 17 18 18 18 19 18 19 19 19
16 16 15 15 14 14 13 12 12 11 12 11 11 11 12 12 12 12 12 13 13 14 15 16 16 16 16 16 16 16 16 17 17 18 18 18 18 19 19 19 20 20 20
17 16 16 15 15 14 14 14 13 13 13 12 12 12 12 12 12 12 13 14 14 15 16 16 17 17 18 18 18 18 17 18 18 19 19 19 20 20 20 21 20 20 21
18 18 18 17 17 16 15 15 15 15 14 13 14 14 13 13 13 14 14 14 15 16 17 17 18 19 19 20 20 20 20 19 20 19 19 20 20 21 21 21 21 21 22
20 19 19 19 19 18 17 17 17 17 16 16 16 16 15 15 15 16 16 16 16 17 17 18 19 19 20 21 21 21 21 21 20 20 20 20 20 20 21 21 22 22 22
22 21 20 20 20 20 20 20 19 19 18 18 17 17 17 17 17 17 17 18 18 18 18 19 20 20 20 21 21 22 22 22 21 21 20 20 20 21 22 22 21 21 22
23 22 22 22 22 21 21 21 20 20 19 18 18 18 18 19 19 19 19 18 18 19 19 20 20 20 21 21 21 22 22 22 22 21 22 22 22 21 22 22 22 21 21
23 23 23 23 23 23 22 21 21 21 20 19 19 20 20 19 20 19 19 19 19 20 20 21 21 21 21 21 21 22 22 23 23 22 22 22 22 22 22 22 22 22 22
24 24 24 23 24 23 23 22 22 22 22 21 21 21 21 20 20 20 20 21 21 21 21 21 21 21 22 22 22 22 23 23 23 22 22 23 23 23 22 22 23 22 22
24 24 24 23 24 24 23 23 23 23 23 22 22 22 22 21 21 21 21 21 22 21 21 21 22 22 22 22 22 22 23 23 23 23 23 23 23 23 23 23 23 22 22
25 24 24 23 24 23 23 23 23 23 23 23 23 22 22 22 21 22 22 22 21 22 22 22 22 23 23 22 22 22 22 22 23 23 23 23 23 23 23 23 23 23 23
26 25 25 24 24 24 23 23 23 23 23 24 23 23 22 22 22 22 22 22 22 22 23 23 23 23 23 22 21 21 21 22 23 23 23 23 23 23 23 23 23 23 23
28 28 26 25 25 25 24 24 23 23 24 24 23 23 23 22 22 22 23 23 23 22 23 23 23 23 23 23 22 22 22 23 23 24 24 23 23 23 23 23 23 24 24
29 29 27 27 27 26 25 25 24 24 25 24 24 23 23 23 24 24 24 24 24 24 24 24 23 23 24 24 24 23 23 23 24 24 24 24 24 25 24 24 24 24 25
29 28 28 28 27 26 25 25 25 25 25 25 24 24 24 24 24 25 25 25 25 25 25 25 24 24 25 25 24 24 24 24 24 25 25 25 25 26 26 25 25 26 25
29 29 28 27 26 26 25 25 25 25 25 25 24 25 25 25 25 25 25 25 25 25 25 25 25 25 26 25 24 24 24 24 25 25 25 25 26 26 26 26 26 26 26
Wind_Direction
295 284 278 258 254 255 269 290 306 294 287 280 286 284 276 275 272 267 271 272 273 273 273 271 265 260 261 261 258 258 258 256 256 258 257 257 257 260 259 260 260 262 264
279 277 280 278 280 283 286 290 297 295 288 285 289 282 280 281 277 272 273 274 275 273 273 272 266 262 261 261 258 257 260 260 260 260 258 254 259 262 261 258 259 262 264
288 288 283 282 284 286 287 288 294 295 291 287 289 283 282 284 276 275 276 277 275 272 269 269 268 265 263 261 261 258 260 261 261 262 258 255 256 260 262 260 258 262 265
301 294 289 285 283 284 283 285 287 293 296 292 291 283 284 284 278 276 278 278 277 276 272 269 268 266 262 261 261 258 257 258 261 265 264 259 258 261 263 264 265 264 264
309 303 290 288 285 285 285 287 286 290 295 293 291 289 287 285 280 278 279 278 279 277 274 272 269 268 264 262 261 259 257 258 261 264 265 263 261 263 264 264 265 264 265
292 298 296 295 291 289 289 288 287 289 289 287 289 290 293 293 285 282 281 280 279 276 275 274 273 271 269 265 261 259 258 260 261 263 264 264 265 264 263 262 264 265 268
282 284 286 287 289 291 294 293 292 291 285 283 289 289 288 290 290 287 283 281 276 276 277 275 275 277 274 271 263 263 262 262 263 264 265 266 269 267 267 267 268 269 270
278 277 279 281 283 288 290 293 292 293 291 288 291 291 289 287 286 286 289 287 279 276 274 271 273 275 276 276 270 271 268 263 264 265 268 268 270 271 271 271 271 271 270
277 275 276 280 282 285 288 290 292 291 290 287 287 289 289 288 286 284 284 281 278 277 275 276 276 275 276 276 276 274 272 268 267 268 267 267 268 269 270 269 272 274 272
274 272 274 278 280 283 286 289 293 290 289 288 286 286 286 286 284 284 285 280 274 276 275 276 279 279 279 280 279 277 275 272 272 271 269 270 270 269 268 268 269 272 272
271 270 271 273 277 281 284 287 291 290 289 290 288 286 283 285 285 285 283 281 280 279 278 277 279 278 280 279 277 277 276 274 274 274 273 271 272 272 268 267 271 272 271
269 269 269 271 275 278 279 283 287 288 290 291 290 287 286 286 288 287 288 286 281 280 279 277 277 277 277 278 278 274 275 273 274 274 274 272 273 274 269 269 271 269 269
268 267 268 269 273 275 277 280 285 287 288 288 290 288 288 288 288 287 287 286 283 280 280 279 277 278 278 277 279 277 276 275 273 273 271 272 271 271 269 270 270 269 267
265 265 266 267 268 271 274 278 282 283 284 285 287 289 287 287 287 287 287 287 286 284 282 281 280 280 278 278 279 279 279 276 274 274 273 271 271 272 270 271 271 270 269
263 263 263 263 265 268 272 276 279 280 280 281 284 287 286 284 284 285 286 286 287 287 287 284 281 280 280 280 280 281 280 278 277 274 274 274 274 274 271 272 271 269 267
261 263 264 265 265 268 272 274 275 277 279 280 281 283 285 284 282 283 283 284 285 286 288 287 283 281 281 281 280 280 280 280 277 276 276 275 275 275 273 272 272 271 268
261 263 264 265 266 266 268 271 273 274 276 277 278 281 283 284 284 283 282 282 284 286 287 288 287 282 282 282 281 281 281 280 278 279 278 276 276 276 276 275 274 273 272
260 263 265 264 264 263 265 268 271 273 275 275 277 278 280 282 284 283 284 285 286 287 288 287 286 284 282 282 281 282 282 282 279 279 277 276 276 277 276 276 276 274 273
260 262 264 264 264 265 267 270 272 274 275 275 277 278 279 278 281 282 284 285 286 287 288 286 285 283 282 281 280 280 281 281 280 279 278 277 276 276 275 275 275 274 273
260 264 266 267 268 267 267 269 272 273 275 275 277 277 278 279 280 281 283 284 286 287 288 286 284 283 283 282 282 281 281 281 280 279 278 277 276 275 275 276 274 272 272
258 262 266 267 267 267 267 268 270 272 273 275 277 277 276 278 280 282 283 284 286 287 287 286 284 283 283 283 282 282 281 280 280 280 278 277 277 276 275 275 274 272 273
258 261 265 266 266 266 267 269 269 270 273 274 276 276 276 277 279 282 284 285 286 286 286 286 284 283 283 282 282 283 282 280 279 279 279 278 277 277 275 275 274 274 274
258 261 264 264 265 266 267 268 268 269 271 274 276 277 277 278 280 282 285 286 288 289 287 285 285 283 283 283 283 283 282 281 281 279 277 277 277 278 275 274 275 274 273
258 261 262 264 264 264 265 265 267 268 269 271 274 276 277 279 280 282 284 285 286 288 288 288 286 284 284 283 283 282 282 280 281 279 278 277 277 277 277 276 275 275 275
258 259 261 263 262 262 263 264 266 266 267 270 272 274 276 277 279 281 282 283 284 286 287 287 285 284 284 284 283 282 282 280 280 279 278 279 279 278 277 276 276 276 277
255 256 258 260 260 260 263 266 266 266 267 269 271 273 275 276 277 279 280 281 282 283 284 285 284 283 283 283 283 283 283 281 280 278 277 278 278 278 277 276 277 278 278